Regional Weather Roundup
Issued by NWS Northern Indiana

Home | Current Version | Previous Version | Graphics & Text | Print | Product List | Glossary On
Versions: 1 2 3 4 5 6 7 8 9 10 11 12 13 14 15 16 17 18 19 20 21 22 23 24 25 26 27 28 29 30 31 32 33 34 35 36 37 38 39 40 41 42 43 44 45 46 47 48 49 50
497
ASUS43 KIWX 272200
RWRIWX

KIWX WEATHER ROUNDUP
NATIONAL WEATHER SERVICE NORTHERN INDIANA
600 PM EDT FRI MAY 27 2016

NOTE: "FAIR" INDICATES FEW OR NO CLOUDS BELOW 12,000 FEET WITH NO
SIGNIFICANT WEATHER AND/OR OBSTRUCTIONS TO VISIBILITY.

* THESE STATIONS ARE NOT UNDER NWS QUALITY CONTROL. THEY ALSO MAY NOT
  REPORT WEATHER SUCH AS PRECIPITATION OR FOG.

INZ001>027-272300-
NORTHERN INDIANA

CITY           SKY/WX    TMP DP  RH WIND       PRES   REMARKS
GARY*          PTSUNNY   75  73  94 SE12      29.86F
VALPARAISO     RAIN      70  68  93 W20G29    29.90R FOG
SOUTH BEND     CLOUDY    83  62  49 S13       29.88F
ELKHART*       CLOUDY    84  66  54 S10       29.89F
GOSHEN         CLOUDY    84  57  39 S16       29.90F
ANGOLA*          N/A     84  79  84 S7        29.92F HX  96
FORT WAYNE     CLOUDY    86  59  39 S17       29.92F
PERU/GRISSOM   CLOUDY    85  62  45 S17       29.89F

$$
INZ028>050-272300-
CENTRAL INDIANA

CITY           SKY/WX    TMP DP  RH WIND       PRES   REMARKS
LAFAYETTE      MOSUNNY   83  58  42 S14G23    29.88S
KOKOMO*        CLOUDY    84  63  48 S13       29.90F
MUNCIE*        MOSUNNY   87  58  37 S17       29.93F
INDIANAPOLIS   MOSUNNY   84  58  40 S20       29.91F

$$
MIZ043>046-050>051-056>058-064>065-071>073-077>080-272300-
SOUTHWEST LOWER MICHIGAN

CITY           SKY/WX    TMP DP  RH WIND       PRES   REMARKS
BATTLE CREEK   CLOUDY    81  63  54 S8        29.92F
BENTON HARBOR  PTSUNNY   82  63  52 SE6       29.86F
COLDWATER*     CLOUDY    81  64  57 SE6       29.93F
HILLSDALE*     CLOUDY    83  54  37 S8        29.95F
HOLLAND        CLOUDY    80  65  59 SE9       29.89F
GRAND RAPIDS   CLOUDY    82  65  56 SE12      29.91F
KALAMAZOO      PTSUNNY   82  62  50 VRB6      29.91F
STURGIS*       CLOUDY    84  60  44 S14G20    29.91S
THREE RIVERS*  FAIR      84  58  41 S8        29.90F

$$
OHZ001>008-015>018-024>025-272300-
NORTHWEST OHIO

CITY           SKY/WX    TMP DP  RH WIND       PRES   REMARKS
DEFIANCE       CLOUDY    86  60  41 SW6       29.93F
FINDLAY        MOSUNNY   88  58  36 SW10      29.94F
TOLEDO EXPRESS MOSUNNY   88  58  36 VRB6      29.94F
TOLEDO METCALF MOSUNNY   87  60  40 VRB3      29.95F
LIMA           PTSUNNY   86  59  39 S12       29.95F

$$
AND FOR LAKE MICHIGAN COASTAL AND OPEN LAKE BUOY OBSERVATIONS

STATION/POSITION TEMP    WIND        PRES    VSBY  WAVE
                 AIR SEA DIR/SP/G                  HT/PER
                 (F)     (DEG/KT/KT) (MB)    (MI)  (FT/S)
CALUMET HARBOR    73     170/  7/ 12 1010.4R
MICHIGAN CITY     83     150/ 12/ 16   N/A
BURNS HARBOR      73     200/ 17/ 24 1011.9R
SAINT JOSEPH      84     330/  2/ 10 1012.2F
SOUTH LAKE BUOY   57 51  120/ 10/ 10 1011.1          1
4 MI NW BRIDGMAN  74 64  150/  8/ 12   N/A           1
MICHIGAN CITY     72 60  180/  8/ 10   N/A           1/ 2

$$
&&




USA.gov is the U.S. government's official web portal to all federal, state and local government web resources and services.